N0ZO-13 Weather Reports


time (UTC)temp
F
wind
direction
speed
knots
gust
knots
rain 1hr
in
rain 24hr
in
rain mn
in
humidity
%
barometer
mb
20260505004623 69 208 0.9 0.9 0.00 0.00 0.00 52 1008.0
20260505003617 69 209 0.0 0.9 0.00 0.00 0.00 51 1008.0
20260505002627 70 180 1.7 2.6 0.00 0.00 0.00 50 1007.9
20260505001622 72 0.0 0.0 0.00 0.00 0.00 49 1007.8
20260505000617 73 194 0.0 0.9 0.00 0.00 0.00 47 1007.8
20260504235626 74 161 0.9 1.7 0.00 0.00 0.00 46 1008.0
20260504234621 74 162 1.7 1.7 0.00 0.00 0.00 44 1008.0
20260504233630 75 171 2.6 6.1 0.00 0.00 0.00 44 1007.9
20260504232645 76 190 1.7 1.7 0.00 0.00 0.00 43 1008.0
20260504231619 76 179 3.5 6.1 0.00 0.00 0.00 43 1008.0
20260504230650 77 183 1.7 3.5 0.00 0.00 0.00 42 1008.1
20260504225623 77 132 3.5 5.2 0.00 0.00 0.00 42 1008.3
20260504224637 78 170 3.5 6.1 0.00 0.00 0.00 41 1008.4
20260504223627 78 184 0.9 0.9 0.00 0.00 0.00 41 1008.4
20260504222618 78 221 2.6 6.1 0.00 0.00 0.00 40 1008.2
20260504221628 79 165 4.3 6.1 0.00 0.00 0.00 41 1008.2
20260504220643 79 180 5.2 7.8 0.00 0.00 0.00 41 1008.4
20260504215618 80 205 2.6 5.2 0.00 0.00 0.00 40 1008.5
20260504214627 80 234 5.2 11.3 0.00 0.00 0.00 40 1008.5
20260504213621 80 229 6.1 8.7 0.00 0.00 0.00 42 1008.4
20260504212629 81 191 2.6 5.2 0.00 0.00 0.00 41 1008.6
20260504211623 81 254 5.2 8.7 0.00 0.00 0.00 41 1008.6
20260504210618 81 103 3.5 6.1 0.00 0.00 0.00 41 1008.7
20260504205626 80 196 5.2 9.6 0.00 0.00 0.00 40 1008.7
20260504204620 81 130 4.3 8.7 0.00 0.00 0.00 40 1008.8
20260504203629 82 210 5.2 8.7 0.00 0.00 0.00 39 1008.7
20260504202623 82 233 8.7 15.6 0.00 0.00 0.00 39 1008.9
20260504201617 81 152 5.2 9.6 0.00 0.00 0.00 40 1008.8
20260504200627 81 199 3.5 8.7 0.00 0.00 0.00 40 1008.9
20260504195620 81 228 1.7 5.2 0.00 0.00 0.00 43 1009.2
20260504194629 80 181 5.2 8.7 0.00 0.00 0.00 41 1009.4
20260504193624 81 183 2.6 7.0 0.00 0.00 0.00 42 1009.4
20260504192618 80 193 3.5 5.2 0.00 0.00 0.00 44 1009.6
20260504191708 80 240 7.0 13.0 0.00 0.00 0.00 44 1009.5
20260504190622 80 149 4.3 9.6 0.00 0.00 0.00 45 1010.0
20260504185616 79 213 3.5 6.1 0.00 0.00 0.00 44 1010.0
20260504184625 80 108 2.6 5.2 0.00 0.00 0.00 44 1010.2
20260504183619 79 124 4.3 8.7 0.00 0.00 0.00 44 1010.3
20260504182629 80 112 3.5 6.1 0.00 0.00 0.00 44 1010.5
20260504181624 79 318 0.9 1.7 0.00 0.00 0.00 45 1010.8
20260504180618 80 301 3.5 5.2 0.00 0.00 0.00 44 1010.8
20260504175628 79 275 2.6 3.5 0.00 0.00 0.00 44 1010.8
20260504174622 79 319 0.9 1.7 0.00 0.00 0.00 45 1010.9
20260504173617 79 91 0.9 0.9 0.00 0.00 0.00 46 1011.1
20260504172626 79 178 2.6 6.1 0.00 0.00 0.00 47 1011.1
20260504171621 79 222 2.6 3.5 0.00 0.00 0.00 47 1011.3
20260504170616 79 113 1.7 5.2 0.00 0.00 0.00 47 1011.4
20260504150625 75 246 3.5 5.2 0.00 0.00 0.00 55 1012.1
20260504140620 68 203 2.6 5.2 0.00 0.00 0.00 66 1012.6
20260504130625 59 109 0.9 1.7 0.00 0.00 0.00 76 1012.8
20260504110618 46 303 0.9 1.7 0.00 0.00 0.00 86 1012.1
20260504081647 49 0.0 0.0 0.00 0.00 0.00 81 1011.9
20260504080640 49 0.0 0.0 0.00 0.00 0.00 81 1011.9
20260504050617 52 0.0 0.0 0.00 0.00 0.00 76 1012.9
20260504045726 52 0.0 0.0 0.00 0.00 0.00 76 1013.0
20260504044620 53 0.0 0.0 0.00 0.00 0.00 75 1013.0
20260504043649 53 279 0.0 0.9 0.00 0.00 0.00 74 1013.2
20260504042623 53 279 0.0 0.9 0.00 0.00 0.00 74 1013.2
20260504041616 53 0.0 0.0 0.00 0.00 0.00 73 1013.4
20260504040625 54 0.0 0.0 0.00 0.00 0.00 73 1013.1
20260504035619 55 0.0 0.0 0.00 0.00 0.00 73 1013.5
20260504034628 55 0.0 0.0 0.00 0.00 0.00 72 1013.5
20260504033702 55 0.0 0.0 0.00 0.00 0.00 71 1013.6
20260504032630 55 0.0 0.0 0.00 0.00 0.00 71 1013.4
20260504031624 55 0.0 0.0 0.00 0.00 0.00 70 1013.6
20260504030619 55 0.0 0.0 0.00 0.00 0.00 69 1013.3
20260504025629 56 0.0 0.0 0.00 0.00 0.00 69 1013.6
20260504024623 56 0.0 0.0 0.00 0.00 0.00 68 1013.4
20260504023637 57 0.0 0.0 0.00 0.00 0.00 67 1013.2
20260504022626 58 279 0.9 0.9 0.00 0.00 0.00 67 1013.0
20260504021620 58 0.0 0.0 0.00 0.00 0.00 66 1013.2
20260504020630 58 0.0 0.0 0.00 0.00 0.00 64 1013.0
20260504015624 59 0.0 0.0 0.00 0.00 0.00 64 1012.9
20260504014619 59 0.0 0.0 0.00 0.00 0.00 63 1012.8
20260504013629 60 0.0 0.0 0.00 0.00 0.00 62 1012.7
20260504012624 61 0.0 0.0 0.00 0.00 0.00 60 1012.6
20260504011617 61 0.0 0.0 0.00 0.00 0.00 58 1012.6
20260504010627 62 0.0 0.0 0.00 0.00 0.00 57 1012.6
20260504005622 62 0.0 0.0 0.00 0.00 0.00 54 1012.6